SWA9865 KPDX-KSAN

Flight info

Callsign SWA9865
Flight time N/A
Altitude 39000
Route HRMNS6 HYJOE BORDY COLOM PASKE HUULK COMIX2
Aircraft B738/M-SDE2E3FGHIRWXY/LB1

Departure

Time N/A
Airport Portland International Airport (KPDX)

Arrival

Time 2026-05-05 04:58
Airport San Diego International Airport (KSAN)
Time Latitude Longitude Altitude Speed Heading
2026-05-05 04:27 34.27203 -118.37597 37116 ft 433 kts 159°
2026-05-05 04:27 34.24623 -118.35762 36567 ft 426 kts 160°
2026-05-05 04:27 34.22084 -118.33960 35985 ft 419 kts 161°
2026-05-05 04:27 34.19575 -118.32186 35382 ft 414 kts 161°
2026-05-05 04:28 34.17097 -118.30438 34778 ft 410 kts 161°
2026-05-05 04:28 34.14668 -118.28726 34142 ft 406 kts 162°
2026-05-05 04:28 34.12242 -118.27016 33430 ft 400 kts 161°
2026-05-05 04:28 34.09837 -118.25322 32786 ft 397 kts 161°
2026-05-05 04:29 34.07482 -118.23666 32393 ft 398 kts 161°
2026-05-05 04:29 34.05046 -118.21964 31923 ft 409 kts 161°
2026-05-05 04:29 34.02545 -118.20217 31435 ft 419 kts 161°
2026-05-05 04:29 34.00006 -118.18434 30946 ft 419 kts 160°
2026-05-05 04:30 33.97555 -118.16696 30460 ft 408 kts 160°
2026-05-05 04:30 33.95134 -118.14981 29964 ft 398 kts 160°
2026-05-05 04:30 33.92772 -118.13316 29432 ft 388 kts 160°
2026-05-05 04:30 33.90464 -118.11696 28982 ft 377 kts 160°
2026-05-05 04:31 33.88217 -118.10122 28511 ft 367 kts 160°
2026-05-05 04:31 33.86050 -118.08606 28069 ft 362 kts 160°
2026-05-05 04:31 33.83848 -118.07083 27613 ft 369 kts 160°
2026-05-05 04:31 33.81698 -118.05654 27193 ft 381 kts 161°
2026-05-05 04:32 33.79269 -118.04067 26728 ft 396 kts 160°
2026-05-05 04:32 33.76849 -118.02477 26220 ft 392 kts 159°
2026-05-05 04:32 33.74513 -118.00927 25758 ft 382 kts 159°
2026-05-05 04:32 33.72210 -117.99396 25303 ft 372 kts 159°
2026-05-05 04:33 33.69968 -117.97909 24860 ft 365 kts 159°
2026-05-05 04:33 33.67762 -117.96450 24417 ft 358 kts 158°
2026-05-05 04:33 33.65589 -117.95018 23997 ft 354 kts 158°
2026-05-05 04:33 33.63399 -117.93579 23531 ft 364 kts 158°
2026-05-05 04:34 33.61145 -117.92102 23044 ft 380 kts 157°
2026-05-05 04:34 33.58812 -117.90564 22524 ft 379 kts 157°
2026-05-05 04:34 33.56530 -117.89053 22049 ft 368 kts 157°
2026-05-05 04:34 33.54333 -117.87599 21603 ft 362 kts 156°
2026-05-05 04:35 33.52140 -117.86115 21169 ft 361 kts 156°
2026-05-05 04:35 33.49961 -117.84625 20729 ft 359 kts 156°
2026-05-05 04:35 33.47784 -117.83136 20290 ft 358 kts 155°
2026-05-05 04:35 33.46349 -117.82158 20000 ft 358 kts 155°
2026-05-05 04:36 33.43510 -117.80122 19405 ft 360 kts 149°
2026-05-05 04:36 33.42213 -117.78846 19129 ft 363 kts 144°
2026-05-05 04:36 33.40344 -117.76810 18699 ft 363 kts 142°
2026-05-05 04:36 33.38497 -117.74754 18262 ft 363 kts 142°
2026-05-05 04:37 33.36638 -117.72701 17763 ft 362 kts 142°
2026-05-05 04:37 33.34778 -117.70676 17300 ft 361 kts 143°
2026-05-05 04:37 33.32932 -117.68688 16834 ft 360 kts 143°
2026-05-05 04:37 33.31066 -117.66690 16358 ft 359 kts 143°
2026-05-05 04:38 33.29198 -117.64697 15905 ft 358 kts 142°
2026-05-05 04:38 33.27336 -117.62714 15470 ft 357 kts 142°
2026-05-05 04:38 33.25500 -117.60760 15069 ft 356 kts 142°
2026-05-05 04:38 33.23653 -117.58801 14718 ft 355 kts 142°
2026-05-05 04:39 33.21797 -117.56848 14401 ft 353 kts 142°
2026-05-05 04:39 33.19951 -117.54908 14065 ft 352 kts 142°
2026-05-05 04:39 33.18131 -117.52994 13738 ft 352 kts 142°
2026-05-05 04:39 33.16300 -117.51069 13382 ft 350 kts 142°
2026-05-05 04:40 33.14469 -117.49144 13043 ft 349 kts 142°
2026-05-05 04:40 33.12603 -117.47305 12713 ft 346 kts 147°
2026-05-05 04:40 33.10627 -117.45676 12400 ft 343 kts 150°
2026-05-05 04:40 33.08650 -117.44090 12077 ft 341 kts 149°
2026-05-05 04:41 33.06711 -117.42508 11781 ft 340 kts 149°
2026-05-05 04:41 33.04765 -117.40899 11468 ft 340 kts 149°
2026-05-05 04:41 33.02834 -117.39285 11161 ft 337 kts 148°
2026-05-05 04:41 33.00929 -117.37684 10850 ft 332 kts 148°
2026-05-05 04:42 32.99052 -117.36106 10563 ft 328 kts 148°
2026-05-05 04:42 32.97238 -117.34581 10256 ft 317 kts 148°
2026-05-05 04:42 32.95445 -117.33077 9969 ft 306 kts 148°
2026-05-05 04:42 32.93772 -117.31674 9923 ft 287 kts 148°
2026-05-05 04:43 32.92146 -117.30313 9441 ft 285 kts 148°
2026-05-05 04:43 32.90535 -117.28972 8945 ft 284 kts 148°
2026-05-05 04:43 32.88950 -117.27654 8791 ft 268 kts 149°
2026-05-05 04:43 32.87490 -117.26439 8654 ft 248 kts 149°
2026-05-05 04:44 32.86119 -117.25297 8538 ft 230 kts 149°
2026-05-05 04:44 32.84873 -117.24261 8435 ft 211 kts 149°
2026-05-05 04:44 32.83717 -117.23298 8285 ft 195 kts 149°
2026-05-05 04:44 32.82626 -117.22394 7990 ft 189 kts 150°
2026-05-05 04:45 32.81553 -117.21492 7621 ft 189 kts 144°
2026-05-05 04:45 32.80882 -117.20151 7232 ft 194 kts 104°
2026-05-05 04:45 32.80575 -117.18601 6972 ft 192 kts 106°
2026-05-05 04:45 32.80244 -117.17066 6789 ft 192 kts 106°
2026-05-05 04:46 32.79907 -117.15528 6604 ft 196 kts 106°
2026-05-05 04:46 32.79561 -117.13958 6421 ft 196 kts 107°
2026-05-05 04:46 32.79217 -117.12407 6311 ft 191 kts 106°
2026-05-05 04:46 32.78880 -117.10894 6203 ft 187 kts 107°
2026-05-05 04:47 32.78543 -117.09382 6125 ft 191 kts 107°
2026-05-05 04:47 32.78201 -117.07853 6026 ft 194 kts 107°
2026-05-05 04:47 32.77849 -117.06316 5985 ft 190 kts 111°
2026-05-05 04:47 32.77332 -117.04876 5987 ft 190 kts 118°
2026-05-05 04:48 32.76761 -117.03451 5983 ft 191 kts 118°
2026-05-05 04:48 32.76191 -117.02023 5981 ft 191 kts 118°
2026-05-05 04:48 32.75625 -117.00593 5981 ft 190 kts 117°
2026-05-05 04:48 32.75073 -116.99188 5981 ft 190 kts 116°
2026-05-05 04:49 32.74620 -116.97704 5914 ft 194 kts 110°
2026-05-05 04:49 32.74205 -116.96161 5740 ft 195 kts 109°
2026-05-05 04:49 32.73806 -116.94641 5607 ft 190 kts 109°
2026-05-05 04:49 32.73416 -116.93153 5487 ft 187 kts 109°
2026-05-05 04:50 32.73030 -116.91679 5395 ft 187 kts 109°
2026-05-05 04:50 32.72640 -116.90197 5297 ft 187 kts 109°
2026-05-05 04:50 32.72260 -116.88736 5208 ft 187 kts 108°
2026-05-05 04:50 32.71849 -116.87274 5101 ft 187 kts 120°
2026-05-05 04:51 32.70889 -116.86354 5008 ft 178 kts 175°
2026-05-05 04:51 32.69718 -116.86589 5001 ft 170 kts 212°
2026-05-05 04:51 32.68862 -116.87495 4938 ft 166 kts 245°
2026-05-05 04:51 32.68498 -116.88800 4851 ft 164 kts 253°
2026-05-05 04:52 32.68137 -116.90114 4574 ft 171 kts 252°
2026-05-05 04:52 32.67760 -116.91441 4327 ft 168 kts 251°
2026-05-05 04:52 32.67386 -116.92742 4089 ft 164 kts 252°
2026-05-05 04:52 32.67316 -116.94051 3895 ft 160 kts 285°
2026-05-05 04:53 32.67645 -116.95316 3820 ft 165 kts 284°
2026-05-05 04:53 32.67968 -116.96644 3656 ft 167 kts 284°
2026-05-05 04:53 32.68284 -116.97959 3529 ft 165 kts 284°
2026-05-05 04:53 32.68600 -116.99274 3339 ft 165 kts 284°
2026-05-05 04:54 32.68909 -117.00554 3178 ft 154 kts 283°
2026-05-05 04:54 32.69191 -117.01722 2969 ft 143 kts 283°
2026-05-05 04:54 32.69454 -117.02817 2841 ft 135 kts 283°
2026-05-05 04:54 32.69706 -117.03863 2715 ft 130 kts 283°
2026-05-05 04:55 32.69957 -117.04908 2527 ft 132 kts 283°
2026-05-05 04:55 32.70208 -117.05946 2352 ft 129 kts 283°
2026-05-05 04:55 32.70452 -117.06957 2178 ft 127 kts 283°
2026-05-05 04:55 32.70697 -117.07971 2066 ft 131 kts 284°
2026-05-05 04:56 32.70949 -117.09018 1858 ft 131 kts 284°
2026-05-05 04:56 32.71196 -117.10038 1649 ft 128 kts 283°
2026-05-05 04:56 32.71440 -117.11050 1453 ft 127 kts 283°
2026-05-05 04:56 32.71684 -117.12060 1265 ft 128 kts 283°
2026-05-05 04:57 32.71932 -117.13084 1063 ft 129 kts 283°
2026-05-05 04:57 32.72175 -117.14088 873 ft 127 kts 284°
2026-05-05 04:57 32.72416 -117.15088 670 ft 124 kts 283°
2026-05-05 04:57 32.72648 -117.16046 473 ft 121 kts 284°
2026-05-05 04:58 32.72889 -117.17035 265 ft 127 kts 285°
2026-05-05 04:58 32.73135 -117.18039 48 ft 124 kts 283°
2026-05-05 04:58 32.73345 -117.18917 24 ft 84 kts 285°
2026-05-05 04:58 32.73447 -117.19346 24 ft 24 kts 283°
2026-05-05 04:59 32.73428 -117.19478 27 ft 10 kts 251°
2026-05-05 04:59 32.73408 -117.19556 28 ft 11 kts 261°
2026-05-05 04:59 32.73420 -117.19657 29 ft 14 kts 284°
2026-05-05 04:59 32.73437 -117.19731 26 ft 7 kts 286°
2026-05-05 05:00 32.73441 -117.19774 30 ft 5 kts 241°
2026-05-05 05:00 32.73402 -117.19801 24 ft 5 kts 207°
2026-05-05 05:00 32.73380 -117.19814 26 ft 2 kts 207°
2026-05-05 05:00 32.73377 -117.19816 25 ft 0 kts 207°